[[{"header":{"parameterUnit":"m.s-1","parameterCategory":1,"la1":30.2991,"la2":30.254,"lo1":-89.0895,"lo2":-89.0444,"dy":0.0017,"dx":0.0017,"nx":28,"ny":28,"refTime":"2024-04-11T09:00:00:Z","depth":0,"parameterNumber":2,"parameterNumberName":"U-component_of_WINDS"},"data":[0,0,0,0,0,0,0,0,0,0,0,0,0,0,0,0,0,0,0,0,0,0,0,0,0,0,0,0,0,0,0,0,0,0,0,0,0,0,0,0,0,0,0,0,0,0,0,0,0,0,0,0,0,0,0,0,0,0,3.694,3.6941,0,3.7051,3.7053,3.7054,3.7005,3.7002,3.6999,3.6997,3.7113,3.7118,3.7124,0,0,0,0,0,0,0,0,0,0,0,0,0,3.6688,3.6693,3.694,3.6941,3.6943,3.7051,3.7053,3.7054,3.7005,3.7002,3.6999,3.6996,3.7111,3.7117,3.7124,0,0,0,0,0,0,0,0,0,0,0,0,0,3.6798,3.6694,3.694,3.6932,3.6932,3.7051,3.7053,3.7055,3.7006,3.7002,3.6998,3.6994,3.7109,3.7117,3.7125,3.7259,0,0,3.7151,3.7154,0,0,0,0,0,0,0,0,3.6792,3.6807,3.6931,3.6932,3.6933,3.701,3.7006,3.7123,3.7007,3.6978,3.6997,3.6992,3.7082,3.7092,3.7122,3.7265,3.727,3.7152,3.7157,3.716,3.7163,0,0,0,0,0,0,0,3.6784,3.6802,3.6984,3.6933,3.6934,3.6923,3.6934,3.7028,3.7052,3.698,3.6977,3.6991,3.7082,3.7114,3.7125,3.7271,3.7151,3.7159,3.7164,3.7167,3.753,3.7535,0,0,0,0,0,0,3.6777,3.6796,3.6981,3.6987,3.6851,3.6931,3.6943,3.6989,3.705,3.7056,3.6994,3.6988,3.7102,3.7115,3.7128,3.729,3.716,3.7168,3.7173,3.7526,3.7531,3.7536,0,0,0,0,0,0,3.6771,3.6793,3.6976,3.6891,3.6913,3.694,3.6992,3.6994,3.7026,3.7061,3.7065,3.7023,3.7099,3.7117,3.7227,3.7293,3.7172,3.718,3.752,3.7527,3.7534,3.7613,0,0,0,0,0,0,3.6764,3.6792,3.6842,3.6893,3.6918,3.7072,3.6996,3.6999,3.7041,3.7034,3.7089,3.7094,3.7097,3.7215,3.7235,3.7302,3.7186,3.7514,3.7523,3.7531,3.7605,3.7622,3.7636,0,0,0,0,0,3.6755,3.6861,3.6845,3.6868,3.6982,3.7076,3.7091,3.7092,3.7046,3.7098,3.712,3.7092,3.7283,3.7226,3.7249,3.732,3.751,3.7521,3.7531,3.7597,3.7618,3.7636,0,0,0,0,0,0,3.6818,3.6867,3.685,3.6975,3.7022,3.7068,3.7132,3.7114,3.7175,3.7166,3.7165,3.7178,3.7292,3.7317,3.7254,3.7453,3.739,3.7405,3.7432,3.7453,3.7468,3.7459,3.7193,0,0,0,0,0,3.6846,3.6918,3.6957,3.7063,3.7088,3.7106,3.7147,3.7144,3.7193,3.7212,3.7243,3.7292,3.7362,3.7409,3.7476,3.7608,3.762,3.7668,3.7684,3.7697,3.771,3.7782,3.7804,3.757,3.757,3.757,0,0,3.6905,3.6941,3.6986,3.7077,3.7112,3.7188,3.7123,3.7205,3.7261,3.7225,3.7331,3.7355,3.741,3.7532,3.7587,3.7556,3.7777,3.771,3.772,3.7726,3.7795,3.7817,3.7837,3.7577,3.7576,3.7575,0,0,3.705,3.7085,3.7177,3.7214,3.7269,3.7281,3.7304,3.7353,3.7368,3.7474,3.7449,3.7516,3.7638,3.7678,3.7714,3.7876,3.7853,3.7898,3.7981,3.8051,3.807,3.8086,3.8144,3.8165,3.7911,3.7912,3.7912,0,3.7117,3.7228,3.7227,3.7311,3.7352,3.7323,3.7416,3.7453,3.7528,3.7557,3.7521,3.7674,3.7709,3.784,3.7879,3.791,3.7936,3.7891,3.8067,3.8084,3.8099,3.8154,3.8176,3.7917,3.7916,3.7916,3.7915,0,3.7307,3.7385,3.7453,3.7525,3.7574,3.7663,3.7675,3.7725,3.7718,3.7734,3.7843,3.7884,3.7959,3.799,3.7984,3.8121,3.81,3.8066,3.8002,3.8126,3.8178,3.8199,3.7924,3.7922,3.7921,3.7919,0,0,3.7494,3.7565,3.759,3.7622,3.7682,3.7742,3.783,3.7903,3.7946,3.7999,3.8073,3.8177,3.8146,3.8187,3.8186,3.8248,3.8374,3.8206,3.8208,3.8236,3.8527,3.8552,3.8576,3.8359,3.8363,3.8367,3.8523,0,3.7643,3.7796,3.7798,3.7939,3.8011,3.7986,3.8062,3.8107,3.8125,3.819,3.821,3.8283,3.8237,3.8262,3.8322,3.8346,3.8432,3.8335,3.8428,3.8432,3.8414,3.8603,3.8629,3.8774,3.8543,3.8546,3.8549,0,3.7838,3.7897,3.8045,3.8094,3.8124,3.8193,3.826,3.8322,3.8374,3.8382,3.8429,3.8419,3.8509,3.8443,3.8568,3.8502,3.854,3.8558,3.8564,3.8572,3.8497,3.8616,3.8821,3.8842,3.8581,3.8578,3.8576,0,3.7959,3.8075,3.8179,3.8208,3.8268,3.8317,3.8345,3.8392,3.8436,3.8495,3.8523,3.8593,3.8631,3.8685,3.8694,3.8645,3.882,3.8754,3.883,3.8829,3.8866,3.8864,3.908,3.8893,3.8893,3.8892,3.8892,0,3.8125,3.8216,3.8234,3.8297,3.84,3.8402,3.8503,3.8527,3.8569,3.8638,3.862,3.8685,3.8693,3.876,3.8768,3.887,3.8888,3.8898,3.8898,3.8899,3.8897,3.8923,3.8913,3.8898,3.8897,3.8896,3.8895,0,3.8276,3.8292,3.8403,3.8451,3.8466,3.8539,3.858,3.8642,3.8658,3.8745,3.8766,3.8792,3.887,3.8885,3.8977,3.8982,3.9104,3.9095,3.9087,3.9085,3.916,3.9152,3.9399,3.9431,3.9224,3.9226,3.9228,0,3.8381,3.8451,3.8507,3.8551,3.8581,3.8653,3.8697,3.8703,3.875,3.8815,3.8868,3.8945,3.9006,3.9133,3.916,3.9231,3.9223,3.9305,3.9234,3.9232,3.9224,3.9219,3.9226,3.9318,3.9321,3.9322,3.9324,0,3.8565,3.8569,3.8634,3.8702,3.8756,3.881,3.8861,3.8899,3.8911,3.8965,3.9045,3.9093,3.9187,3.9264,3.9334,3.9364,3.9346,3.9346,3.9367,3.9368,3.936,3.9364,3.9123,3.934,3.9339,3.9337,3.9337,3.9336,3.8696,3.8756,3.8805,3.8878,3.8918,3.8966,3.9026,3.905,3.9116,3.9193,3.9193,3.928,3.9331,3.9424,3.9458,3.9527,3.9501,3.9532,3.9539,3.9546,3.9553,3.935,3.954,3.954,3.9539,3.9539,3.9539,0,3.8878,3.8908,3.8976,3.9047,3.9105,3.9084,3.914,3.919,3.9267,3.9315,3.9376,3.9468,3.9542,3.9576,3.9649,3.9698,3.9692,3.9717,3.9713,3.972,3.9572,3.9547,3.972,3.972,3.972,3.972,3.972,3.972,3.8979,3.9081,3.9092,3.9213,3.9243,3.9328,3.9362,3.9407,3.9445,3.9548,3.961,3.9631,3.9674,3.9751,3.9818,3.9826,3.9854,3.9882,3.9887,3.9748,3.973,3.9712,3.9688,3.9889,3.9889,4.0028,4.0029,4.003]},{"header":{"parameterUnit":"m.s-1","parameterCategory":1,"la1":30.2991,"la2":30.254,"lo1":-89.0895,"lo2":-89.0444,"dy":0.0017,"dx":0.0017,"nx":28,"ny":28,"refTime":"2024-04-11T09:00:00:Z","depth":0,"parameterNumber":3,"parameterNumberName":"V-component_of_WINDS"},"data":[0,0,0,0,0,0,0,0,0,0,0,0,0,0,0,0,0,0,0,0,0,0,0,0,0,0,0,0,0,0,0,0,0,0,0,0,0,0,0,0,0,0,0,0,0,0,0,0,0,0,0,0,0,0,0,0,0,0,-3.264,-3.2642,0,-3.2774,-3.2775,-3.2777,-3.2735,-3.2732,-3.2729,-3.2726,-3.2866,-3.2872,-3.2879,0,0,0,0,0,0,0,0,0,0,0,0,0,-3.2353,-3.2358,-3.264,-3.2642,-3.2644,-3.2774,-3.2776,-3.2777,-3.2735,-3.2732,-3.2728,-3.2725,-3.2864,-3.2871,-3.2879,0,0,0,0,0,0,0,0,0,0,0,0,0,-3.2481,-3.236,-3.264,-3.2638,-3.2639,-3.2773,-3.2776,-3.2778,-3.2736,-3.2732,-3.2727,-3.2723,-3.2861,-3.2871,-3.288,-3.3025,0,0,-3.2909,-3.2914,0,0,0,0,0,0,0,0,-3.2474,-3.2492,-3.2637,-3.2639,-3.264,-3.2733,-3.2725,-3.2861,-3.2737,-3.2699,-3.2726,-3.2721,-3.2826,-3.2838,-3.2872,-3.3031,-3.3037,-3.291,-3.2916,-3.292,-3.2923,0,0,0,0,0,0,0,-3.2465,-3.2486,-3.2693,-3.2639,-3.2641,-3.2632,-3.2646,-3.2751,-3.2785,-3.2702,-3.27,-3.2716,-3.2826,-3.2863,-3.2875,-3.3039,-3.291,-3.2918,-3.2924,-3.2928,-3.3326,-3.333,0,0,0,0,0,0,-3.2455,-3.2479,-3.2689,-3.2697,-3.2545,-3.2641,-3.2656,-3.2708,-3.2784,-3.2791,-3.2719,-3.2713,-3.2849,-3.2864,-3.288,-3.3055,-3.292,-3.2929,-3.2935,-3.3321,-3.3327,-3.3332,0,0,0,0,0,0,-3.2449,-3.2474,-3.2684,-3.2587,-3.2613,-3.265,-3.2709,-3.2713,-3.275,-3.2796,-3.2803,-3.2751,-3.2846,-3.2867,-3.2989,-3.306,-3.2933,-3.2942,-3.3315,-3.3323,-3.3329,-3.3407,0,0,0,0,0,0,-3.244,-3.2472,-3.2526,-3.2589,-3.2619,-3.279,-3.2713,-3.2718,-3.2766,-3.276,-3.2828,-3.2835,-3.2844,-3.2975,-3.2999,-3.3071,-3.2949,-3.3309,-3.3318,-3.3327,-3.3398,-3.3416,-3.3431,0,0,0,0,0,-3.243,-3.2543,-3.2529,-3.2555,-3.2687,-3.2794,-3.2811,-3.2818,-3.2772,-3.2828,-3.2858,-3.2833,-3.3048,-3.2988,-3.3014,-3.309,-3.3305,-3.3316,-3.3326,-3.3391,-3.3412,-3.343,0,0,0,0,0,0,-3.2489,-3.2551,-3.2536,-3.2672,-3.2728,-3.2786,-3.2857,-3.2841,-3.2911,-3.2903,-3.291,-3.2925,-3.3052,-3.3083,-3.3015,-3.3235,-3.317,-3.3186,-3.321,-3.3231,-3.3247,-3.3237,-3.2957,0,0,0,0,0,-3.2517,-3.2598,-3.2648,-3.2763,-3.2792,-3.282,-3.2867,-3.2868,-3.2926,-3.2949,-3.2988,-3.3047,-3.3128,-3.3181,-3.3257,-3.3402,-3.3417,-3.3467,-3.3484,-3.3497,-3.3512,-3.3592,-3.3615,-3.3367,-3.3367,-3.3367,0,0,-3.2577,-3.2621,-3.2672,-3.2776,-3.2819,-3.2904,-3.284,-3.2932,-3.2995,-3.2964,-3.3082,-3.3113,-3.3179,-3.3313,-3.3375,-3.3343,-3.3583,-3.3511,-3.3521,-3.3529,-3.3606,-3.3629,-3.365,-3.3375,-3.3373,-3.3372,0,0,-3.273,-3.2771,-3.2872,-3.2917,-3.2982,-3.3,-3.3025,-3.3086,-3.3105,-3.3224,-3.3203,-3.3278,-3.3417,-3.3465,-3.3508,-3.368,-3.3661,-3.3705,-3.3791,-3.3869,-3.3889,-3.3906,-3.3969,-3.3991,-3.3719,-3.3719,-3.372,0,-3.2797,-3.2922,-3.2926,-3.302,-3.3067,-3.3042,-3.3146,-3.3189,-3.3277,-3.3311,-3.3275,-3.3449,-3.3491,-3.3638,-3.368,-3.3715,-3.3744,-3.3698,-3.3886,-3.3903,-3.3919,-3.3979,-3.4003,-3.3724,-3.3724,-3.3723,-3.3723,0,-3.3001,-3.3089,-3.3162,-3.3248,-3.3303,-3.3401,-3.3422,-3.3478,-3.3474,-3.3497,-3.3619,-3.3669,-3.3756,-3.3791,-3.3788,-3.3938,-3.3917,-3.3883,-3.3818,-3.3948,-3.4005,-3.4028,-3.3732,-3.373,-3.3728,-3.3727,0,0,-3.3195,-3.3281,-3.3308,-3.3347,-3.3418,-3.3487,-3.3585,-3.3669,-3.3718,-3.378,-3.3863,-3.3981,-3.3951,-3.3999,-3.4002,-3.4071,-3.4206,-3.4029,-3.4031,-3.4061,-3.4376,-3.4401,-3.4428,-3.4193,-3.4198,-3.4201,-3.4371,0,-3.3354,-3.3525,-3.3532,-3.3688,-3.377,-3.3748,-3.3833,-3.3887,-3.3911,-3.3984,-3.4011,-3.4095,-3.4048,-3.4077,-3.4144,-3.4175,-3.427,-3.4163,-3.4272,-3.4276,-3.4257,-3.4457,-3.4484,-3.4642,-3.4393,-3.4396,-3.4399,0,-3.3563,-3.3631,-3.3795,-3.3856,-3.389,-3.3967,-3.4045,-3.4116,-3.4177,-3.419,-3.4244,-3.4238,-3.4339,-3.427,-3.4411,-3.4339,-3.4384,-3.4407,-3.4413,-3.4424,-3.4346,-3.4475,-3.4692,-3.4716,-3.4434,-3.4431,-3.4429,0,-3.3689,-3.3821,-3.3937,-3.3971,-3.4044,-3.4099,-3.4132,-3.4189,-3.424,-3.4309,-3.4343,-3.4423,-3.4468,-3.4531,-3.4547,-3.4495,-3.4689,-3.462,-3.4703,-3.4703,-3.4746,-3.4743,-3.4974,-3.4773,-3.4773,-3.4772,-3.4772,0,-3.3867,-3.3969,-3.3995,-3.4066,-3.418,-3.4188,-3.4301,-3.433,-3.4381,-3.4459,-3.4445,-3.4519,-3.4535,-3.4612,-3.4625,-3.4741,-3.4761,-3.4775,-3.4778,-3.4777,-3.4776,-3.4808,-3.4798,-3.4779,-3.4777,-3.4776,-3.4775,0,-3.4027,-3.4048,-3.4173,-3.4233,-3.425,-3.4331,-3.4383,-3.4452,-3.4474,-3.4573,-3.4597,-3.4632,-3.4722,-3.4744,-3.4852,-3.4861,-3.4999,-3.499,-3.4978,-3.4978,-3.506,-3.5053,-3.5321,-3.5357,-3.5131,-3.5133,-3.5135,0,-3.414,-3.4217,-3.4285,-3.4336,-3.4371,-3.4453,-3.4505,-3.4516,-3.4571,-3.4647,-3.4708,-3.4796,-3.4868,-3.5014,-3.505,-3.5133,-3.5127,-3.5215,-3.514,-3.5137,-3.513,-3.5126,-3.5135,-3.523,-3.5233,-3.5235,-3.5236,0,-3.4338,-3.4345,-3.4419,-3.4498,-3.456,-3.4623,-3.4683,-3.4726,-3.4745,-3.4808,-3.49,-3.4955,-3.5066,-3.5155,-3.5238,-3.5274,-3.526,-3.526,-3.5284,-3.5284,-3.5275,-3.5283,-3.5019,-3.5254,-3.5252,-3.5251,-3.525,-3.5249,-3.4479,-3.4547,-3.4606,-3.469,-3.4736,-3.4793,-3.4861,-3.4891,-3.4968,-3.5058,-3.506,-3.5161,-3.5222,-3.5332,-3.5373,-3.5453,-3.5426,-3.5461,-3.5469,-3.5478,-3.5486,-3.5261,-3.5468,-3.5468,-3.5467,-3.5467,-3.5467,0,-3.4678,-3.4714,-3.4791,-3.4875,-3.4942,-3.4921,-3.4986,-3.5044,-3.5132,-3.519,-3.526,-3.5367,-3.5453,-3.5497,-3.5583,-3.5639,-3.5634,-3.5661,-3.5658,-3.5667,-3.5504,-3.5476,-3.5663,-3.5663,-3.5663,-3.5663,-3.5663,-3.5663,-3.4789,-3.4904,-3.4918,-3.5056,-3.5093,-3.519,-3.523,-3.5283,-3.5329,-3.5448,-3.5519,-3.5546,-3.5599,-3.5689,-3.5768,-3.5778,-3.5812,-3.5842,-3.585,-3.5698,-3.5678,-3.5659,-3.5632,-3.5849,-3.5849,-3.6005,-3.6007,-3.6008]}]]